SCP
0 0 0 0 0 0 0 0 0 0 0 0 0 0 0 0 0 0 0 0 0 0 0 0 0 0 0 0 0 0 0 0 0 0 0 0 0 0 0 0 0 0 0
0 0 0 0 0 0 0 0 0 0 0 0 0 0 0 0 0 0 0 0 0 0 0 0 0 0 0 0 0 0 0 0 0 0 0 0 0 0 0 0 0 0 0
0 0 0 0 0 0 0 0 0 0 0 0 0 0 0 0 0 0 0 0 0 0 0 0 0 0 0 0 0 0 0 0 0 0 0 0 0 0 0 0 0 0 0
0 0 0 0 0 0 0 0 0 0 0 0 0 0 0 0 0 0 0 0 0 0 0 0 0 0 0 0 0 0 0 0 0 0 0 0 0 0 0 0 0 0 0
0 0 0 0 0 0 0 0 0 0 0 0 0 0 0 0 0 0 0 0 0 0 0 0 0 0 0 0 0 0 0 0 0 0 0 0 0 0 0 0 0 0 0
0 0 0 0 0 0 0 0 0 0 0 0 0 0 0 0 0 0 0 0 0 0 0 0 0 0 0 0 0 0 0 0 0 0 0 0 0 0 0 0 0 0 0
0 0 0 0 0 0 0 0 0 0 0 0 0 0 0 0 0 0 0 0 0 0 0 0 0 0 0 0 0 0 0 0 0 0 0 0 0 0 0 0 0 0 0
0 0 0 0 0 0 0 0 0 0 0 0 0 0 0 0 0 0 0 0 0 0 0 0 0 0 0 0 0 0 0 0 0 0 0 0 0 0 0 0 0 0 0
0 0 0 0 0 0 0 0 0 0 0 0 0 0 0 0 0 0 0 0 0 0 0 0 0 0 0 0 0 0 0 0 0 0 0 0 0 0 0 0 0 0 0
0 0 0 0 0 0 0 0 0 0 0 0 0 0 0 0 0 0 0 0 0 0 0 0 0 0 0 0 0 0 0 0 0 0 0 0 0 0 0 0 0 0 0
0 0 0 0 0 0 0 0 0 0 0 0 0 0 0 0 0 0 0 0 0 0 0 0 0 0 0 0 0 0 0 0 0 0 0 0 0 0 0 0 0 0 0
0 0 0 0 0 0 0 0 0 0 0 0 0 0 0 0 0 0 0 0 0 0 0 0 0 0 0 0 0 0 0 0 0 0 0 0 0 0 0 0 0 0 0
1 1 1 0 0 0 0 0 0 0 0 0 0 0 0 0 0 0 0 0 0 0 0 0 0 0 0 0 0 0 0 0 0 0 0 0 0 0 0 0 0 0 0
1 1 1 1 1 0 0 0 0 0 0 0 0 0 0 0 0 0 0 0 0 0 0 0 0 0 0 0 0 0 0 0 0 0 0 0 0 0 0 0 0 0 0
1 1 1 1 1 1 0 0 0 0 0 0 0 0 0 0 0 0 0 0 0 0 0 0 0 0 0 0 0 0 0 0 0 0 0 0 0 0 0 0 0 0 0
1 1 1 1 1 1 1 0 0 0 0 0 0 0 0 0 0 0 0 0 0 0 0 0 0 0 0 0 0 0 0 0 0 0 0 0 0 0 0 0 0 0 0
1 1 1 1 1 1 1 1 0 0 0 0 0 0 0 0 0 0 0 0 0 0 0 0 0 0 0 0 0 0 0 0 0 0 0 0 0 0 0 0 0 0 0
2 2 2 1 1 1 1 1 1 0 0 0 0 0 0 0 0 0 0 0 0 0 0 0 0 0 0 0 1 1 0 0 0 0 0 0 0 0 0 0 0 0 0
2 2 2 1 1 1 1 1 1 1 1 0 0 0 0 1 1 1 0 0 0 0 0 0 0 0 0 1 1 1 1 1 0 0 0 0 0 0 0 0 0 0 0
2 1 1 1 1 1 1 1 1 1 1 1 0 0 1 1 1 1 0 0 0 0 0 0 1 1 1 1 1 1 1 1 1 0 0 0 0 0 0 0 0 0 0
1 1 1 1 1 1 1 1 1 1 1 1 1 0 1 1 1 0 0 0 0 0 0 0 0 1 1 1 1 1 1 1 1 0 0 0 0 0 0 0 0 0 0
1 1 1 1 1 1 1 1 1 1 1 1 1 0 0 0 0 0 0 0 0 0 0 0 0 0 1 1 1 1 1 1 1 1 0 0 0 0 0 0 0 0 0
2 1 1 1 1 1 0 0 0 0 1 1 0 0 0 0 0 0 0 0 0 0 0 0 0 0 0 1 1 1 1 1 1 1 1 0 0 0 0 0 0 0 0
2 1 1 1 1 1 0 0 0 0 0 0 0 0 0 0 0 0 0 0 0 0 0 0 0 0 0 0 0 0 0 0 0 0 0 0 0 0 0 0 0 0 0
2 1 1 1 1 1 0 0 0 0 0 0 0 0 0 0 0 0 0 0 0 0 0 0 0 0 0 0 0 0 0 0 0 0 0 0 0 0 0 0 0 0 0
2 2 1 1 1 1 1 0 0 0 0 0 0 0 0 0 0 0 0 0 0 0 0 0 0 0 0 0 0 0 0 0 0 0 0 0 0 0 0 0 0 0 0
Wind_Speed
2 2 2 2 2 2 3 2 2 2 2 1 1 2 1 2 4 4 5 9 9 8 8 8 7 6 6 5 5 5 5 5 4 4 5 5 5 5 6 6 6 6 6
2 2 2 1 1 1 2 2 2 2 2 2 1 1 1 2 3 4 5 6 8 8 8 8 7 6 6 6 5 5 5 5 4 4 5 5 5 5 6 6 6 6 6
3 2 2 2 1 1 2 2 2 2 2 2 2 2 1 1 2 4 5 5 5 7 8 7 7 6 6 6 6 5 4 4 4 4 5 5 6 6 6 6 6 6 6
2 1 2 2 1 1 2 2 2 2 2 1 2 2 2 2 2 3 3 4 5 5 6 8 8 7 6 6 6 5 4 4 3 3 4 5 6 6 6 6 6 7 6
2 2 2 1 1 1 1 1 2 1 1 1 2 2 2 3 3 3 3 3 4 5 6 7 8 8 8 7 6 5 5 4 4 3 3 4 5 6 6 7 7 8 8
2 1 2 2 1 1 1 2 1 1 1 1 2 2 2 2 2 2 3 3 3 5 6 7 6 6 8 7 6 6 5 4 4 4 4 4 4 4 5 7 7 8 8
2 1 1 2 1 2 2 1 1 0 0 0 0 0 1 2 2 2 2 2 2 3 4 6 5 4 4 7 6 5 4 4 4 4 4 4 4 4 4 5 6 7 8
2 2 2 1 2 2 2 1 1 0 1 0 0 0 1 0 1 3 3 3 2 2 2 4 4 5 4 4 5 5 4 4 4 4 3 3 3 3 3 3 3 4 5
1 2 2 1 1 2 2 1 1 1 0 1 0 1 1 1 0 0 1 2 2 1 1 2 2 3 4 4 4 5 5 4 4 4 4 3 3 3 3 3 4 4 4
2 2 2 2 1 1 2 1 1 0 1 1 1 1 1 1 0 0 1 1 2 2 1 1 1 2 3 3 4 5 5 4 3 3 3 3 3 3 3 3 3 4 4
2 2 3 2 2 1 2 1 1 0 1 1 1 1 0 1 1 1 1 1 1 1 1 1 1 1 3 3 3 4 5 5 4 3 3 3 3 3 3 4 4 4 4
3 3 3 2 2 1 2 2 1 1 0 1 2 2 1 1 1 1 1 2 1 2 2 2 2 2 2 3 4 6 6 5 4 3 3 3 3 3 3 3 3 4 4
3 4 3 3 2 2 2 2 2 1 1 1 1 2 1 2 1 1 0 1 1 1 2 2 2 1 2 4 4 6 5 6 6 5 4 3 2 2 2 3 3 3 3
3 4 4 4 3 3 3 2 2 2 2 2 2 1 2 2 2 1 1 1 1 1 0 1 1 1 1 3 5 6 4 8 8 6 5 4 3 2 2 2 3 3 3
3 5 5 5 4 3 2 2 2 2 2 2 2 2 2 2 2 2 1 1 1 1 1 1 0 1 1 2 5 4 4 7 9 8 7 5 4 3 3 3 3 2 2
3 4 5 5 4 4 3 2 2 2 2 2 2 1 1 2 2 2 1 1 1 1 2 1 1 1 1 1 4 3 3 7 9 9 8 7 6 5 4 3 3 3 3
4 4 5 5 4 4 4 3 3 3 3 3 3 2 2 2 2 2 2 1 1 1 2 2 0 1 1 1 2 2 3 4 5 9 9 9 8 7 5 4 4 3 3
5 5 4 4 5 4 4 4 4 4 4 3 3 2 2 2 2 2 2 2 1 1 1 2 2 1 2 2 3 3 4 4 4 8 10 10 9 8 6 5 5 4 3
5 5 4 5 4 4 4 4 4 3 3 3 3 3 3 2 2 2 2 2 2 2 1 2 2 2 1 1 1 3 3 2 3 5 9 9 9 9 8 7 6 5 4
5 5 4 4 4 4 4 4 4 4 4 3 3 3 3 3 2 3 3 2 3 3 2 2 2 1 1 1 1 2 2 2 2 2 3 6 8 10 9 8 7 6 5
6 5 4 4 4 4 4 4 4 5 4 4 3 3 3 2 2 2 2 2 2 2 2 2 2 2 1 1 1 2 2 1 2 2 2 3 4 4 5 7 8 7 6
5 4 5 5 5 4 4 5 4 4 4 4 4 3 3 3 4 4 3 3 3 4 3 3 2 2 2 2 1 2 2 2 2 1 1 3 3 4 4 4 7 9 8
5 5 5 5 5 4 4 4 4 4 4 4 4 3 4 3 3 2 3 4 5 6 6 4 4 4 3 2 2 2 2 2 3 2 1 3 2 2 3 4 9 9 8
5 5 5 5 5 5 5 5 5 5 4 4 3 3 3 2 2 2 3 4 4 4 5 4 4 4 3 2 2 3 3 4 3 2 1 2 2 2 1 2 8 10 10
5 5 5 5 5 5 6 6 6 4 4 4 4 4 3 3 3 3 3 4 4 3 3 3 4 5 5 5 3 2 2 2 3 2 1 1 2 2 1 2 4 9 9
5 5 5 5 5 5 7 8 7 4 4 4 3 4 5 4 3 3 3 3 4 4 3 3 4 5 5 5 6 4 3 3 3 2 1 1 2 1 2 1 2 3 4
Wind_Direction
125 119 127 152 157 146 144 137 145 130 127 134 143 125 125 110 120 122 130 146 146 149 152 157 161 166 169 175 176 177 185 189 196 209 216 218 221 225 226 221 222 225 225
104 111 128 121 114 131 125 144 146 136 131 145 152 139 156 130 134 129 135 145 151 152 154 158 162 166 172 177 178 181 192 200 205 216 220 221 222 225 228 225 224 228 232
116 129 141 137 126 147 142 144 144 142 156 163 158 160 149 128 127 135 148 156 154 157 161 163 165 167 173 178 185 190 194 203 214 224 227 228 225 226 226 227 228 232 235
121 128 125 121 157 171 155 152 159 152 149 169 170 166 154 159 163 159 169 158 159 163 169 173 172 172 177 182 186 190 198 207 215 222 231 231 227 228 227 228 231 235 236
129 124 117 116 202 161 133 132 112 131 146 177 175 176 174 172 176 176 164 169 165 159 163 172 178 181 186 188 190 195 204 212 214 217 230 231 229 231 232 231 234 236 236
123 121 145 142 172 100 67 55 74 104 159 207 209 165 169 174 168 155 169 173 165 171 168 166 176 189 193 191 193 195 204 213 211 210 224 230 234 238 241 236 235 237 238
130 134 110 130 93 90 76 64 60 96 208 151 70 147 189 166 169 172 174 168 169 165 170 166 169 168 180 192 198 195 201 211 208 209 218 225 236 243 245 241 237 239 240
144 144 122 150 119 113 102 102 107 82 297 86 160 160 93 13 264 186 167 178 166 171 172 158 163 169 167 160 177 185 198 207 208 207 211 221 232 246 252 247 246 248 246
135 96 120 119 126 129 130 160 134 178 259 279 123 111 132 168 176 84 192 143 156 160 151 148 148 154 156 149 155 175 188 197 205 211 217 221 228 245 246 244 248 249 253
148 132 124 118 124 116 135 183 120 275 230 267 241 183 133 105 146 137 284 147 179 181 149 142 127 135 129 128 129 142 164 177 195 215 225 228 234 244 247 246 255 257 260
170 151 133 132 134 133 132 114 105 22 299 317 315 285 189 178 237 182 196 210 214 176 166 179 173 151 143 138 130 140 154 166 180 197 218 231 244 255 261 256 259 268 273
171 167 156 150 150 142 135 143 160 178 267 358 334 322 327 304 273 253 208 213 197 198 191 185 201 176 160 133 139 146 158 163 173 193 216 227 241 258 272 267 265 271 278
175 168 166 158 162 148 154 155 180 193 199 234 276 297 318 299 314 309 326 275 272 208 195 192 206 190 159 138 142 159 161 170 184 195 206 211 227 246 262 270 272 279 284
170 158 164 167 168 172 182 172 191 181 188 231 248 272 291 297 311 310 309 312 300 276 236 226 165 154 136 136 157 169 171 185 192 198 202 201 214 233 250 265 267 278 286
168 161 170 173 171 172 173 171 199 195 188 218 244 244 267 279 285 296 299 268 248 272 271 240 189 146 155 133 165 183 174 191 197 200 201 203 211 224 235 248 254 268 280
174 165 168 171 169 171 180 194 205 201 207 224 238 237 283 303 308 302 299 286 249 247 269 270 218 177 222 216 180 191 189 190 200 202 204 204 206 213 222 234 243 247 261
176 174 174 173 176 178 188 203 221 201 211 228 242 227 231 263 305 307 301 290 283 274 269 282 277 202 213 234 192 215 200 199 197 205 204 201 204 207 211 222 230 235 246
180 179 182 181 189 187 194 202 223 221 215 219 231 242 246 246 254 287 305 302 291 276 259 277 284 255 238 218 200 230 229 218 194 198 200 199 201 200 202 210 209 223 237
182 183 186 192 198 192 197 207 217 227 229 227 224 234 244 254 264 266 277 287 291 286 253 254 262 250 242 243 216 250 258 250 225 193 195 201 201 198 200 201 200 211 225
183 186 194 199 200 196 200 206 216 217 222 227 225 227 231 232 244 263 262 273 283 287 277 268 266 265 258 257 233 254 263 257 247 224 200 194 197 198 201 200 199 205 214
191 187 191 202 209 202 208 206 221 220 215 224 227 225 222 210 219 246 268 287 290 286 282 275 268 265 266 291 275 273 276 261 246 227 217 206 187 194 201 207 205 207 209
189 188 193 200 215 218 203 201 218 229 216 218 228 232 220 210 218 221 244 262 262 266 280 282 277 277 270 271 277 284 285 297 284 250 227 238 198 199 195 191 191 195 204
188 193 200 202 202 203 205 199 216 235 234 229 228 231 246 224 198 219 240 246 248 242 237 255 273 282 286 299 301 290 290 286 268 269 264 260 229 216 191 174 175 185 199
190 198 205 205 195 201 206 202 213 225 237 237 229 229 237 243 243 246 249 247 242 236 233 234 256 273 279 284 276 266 266 269 264 266 248 260 262 252 187 169 186 193 203
197 201 201 205 202 196 200 201 200 219 228 232 229 229 222 222 233 241 257 259 256 253 245 243 243 249 257 263 254 276 279 282 282 279 278 266 270 279 232 201 203 201 208
204 205 207 208 206 201 197 196 195 219 232 233 229 222 220 216 216 219 237 256 259 265 262 254 254 253 247 243 230 224 239 253 271 277 238 236 273 288 280 230 187 191 211